Flag for Germany Weather past 2 weeks in Wittenberg, Saxony-Anhalt, Germany

Now
57 °F

Passing clouds.


Feels Like: 57 °F
Forecast: 64 / 92 °F
Wind: 1 mph from East

Location: Holzdorf

Current Time: Aug 30, 2015 at 6:43:06 AM

Latest Report: Aug 30, 2015 at 5:20 AM


Visibility: N/A

Pressure: 30.12 "Hg

Humidity: 94%

Dew point: 55 °F

Location of WittenbergLocation

Historic Weather in Wittenberg — Graph

°F

Wittenberg temperature yesterday

Maximum temperature yesterday: 77 °F (at 6:20 PM)
Minimum temperature yesterday: 52 °F (at 3:20 AM)
Average temperature yesterday: 62 °F

Past Weeks' High & Low Weather Summary

 TemperatureHumidityPressure
High84 °F (Aug 15, 12:20 PM)100% (Aug 16, 3:20 AM)30.30 "Hg (Aug 16, 3:20 AM)
Low46 °F (Aug 21, 5:20 AM)30% (Aug 21, 5:20 PM)29.68 "Hg (Aug 15, 5:20 AM)
Average66 °F76%29.99 "Hg
* Reported Aug 15 4:20 AM — Aug 30 4:20 AM, Wittenberg, Weather by CustomWeather, © 2015

Note: Actual official high and low records may vary slightly from our data, if they occured in-between our weather recording intervals... More about our weather records

Advertising

Wittenberg weather history for previous 24 hours

 ConditionsComfort  
Time TempWeatherWind HumidityBarometerVisibility
4:20 AM
Sun, Aug 30
57 °FPassing clouds.1 mph94%30.12 "HgN/A
3:20 AM57 °FPassing clouds.2 mph94%30.15 "HgN/A
2:20 AM57 °FPassing clouds.1 mph94%30.15 "HgN/A
1:20 AM59 °FPassing clouds.1 mph88%30.15 "HgN/A
12:20 AM59 °FPassing clouds.No wind94%30.18 "HgN/A
11:20 PM
Sat, Aug 29
61 °FPassing clouds.1 mph88%30.18 "HgN/A
10:20 PM61 °FPassing clouds.1 mph88%30.18 "HgN/A
9:20 PM63 °FPassing clouds.1 mph83%30.18 "HgN/A
8:20 PM66 °FPassing clouds.1 mph73%30.18 "HgN/A
7:20 PM73 °FPassing clouds.1 mph57%30.18 "HgN/A
6:20 PM77 °FScattered clouds.2 mph47%30.18 "HgN/A
5:20 PM75 °FScattered clouds.5 mph50%30.21 "HgN/A
4:20 PM75 °FScattered clouds.5 mph50%30.21 "HgN/A
3:20 PM73 °FPassing clouds.2 mph53%30.24 "HgN/A
2:20 PM73 °FPassing clouds.5 mph53%30.24 "HgN/A
1:20 PM72 °FPassing clouds.3 mph57%30.27 "HgN/A
11:20 AM64 °FPassing clouds.6 mph83%30.27 "HgN/A
10:20 AM59 °FFog.6 mph100%30.27 "Hg2 mi
9:47 AM59 °FFog.2 mph100%30.27 "Hg1 mi
9:20 AM57 °FFog.1 mph100%30.27 "Hg0 mi
7:20 AM54 °FFog.3 mph100%30.24 "Hg0 mi
6:20 AM54 °FFog.2 mph100%30.24 "Hg0 mi
Weather by CustomWeather, © 2015

See weather overviewHow to use our weather pages